Simultaneous Nadir Overpasses (SNOs) Predictions

Prediction of SNOs between NOAA-15 and METOP-C Satellite Orbit:

Table of predicted SNOs for the next 14.0 days since TLE Epoch: 11/28/2020
Index Date (NOAA-15) Time (NOAA-15) Lat,Lon (NOAA-15) SZA (NOAA-15 ) Date (METOP-C) Time (METOP-C) Lat,Lon (METOP-C) SZA (METOP-C ) Distance(km) Time Diff (sec)
1 12/09/2020 01:27:16 -80.96, 14.83 74.37 12/09/2020 01:26:07 -80.95, 14.67 74.42 3.02 69
2 12/09/2020 02:17:49 80.96,-177.78 105.64 12/09/2020 02:16:48 80.96,-177.88 105.60 1.88 61
3 12/09/2020 03:08:18 -80.96, -10.29 74.36 12/09/2020 03:07:28 -80.96, -10.44 74.38 2.76 50
4 12/09/2020 03:58:51 80.95, 157.09 105.65 12/09/2020 03:58:09 80.97, 157.00 105.64 2.13 42
5 12/09/2020 04:49:21 -80.97, -35.78 74.36 12/09/2020 04:48:50 -80.96, -35.92 74.40 2.74 31
6 12/09/2020 05:39:54 80.97, 131.60 105.65 12/09/2020 05:39:31 80.96, 131.52 105.63 1.41 23
7 12/09/2020 06:30:23 -80.96, -60.90 74.35 12/09/2020 06:30:11 -80.97, -61.04 74.36 2.44 12
8 12/09/2020 07:20:56 80.96, 106.47 105.66 12/09/2020 07:20:52 80.97, 106.41 105.66 1.68 4
9 12/09/2020 08:11:26 -80.97, -86.39 74.36 12/09/2020 08:11:33 -80.96, -86.52 74.37 2.48 7
10 12/09/2020 09:01:59 80.97, 80.97 105.65 12/09/2020 09:02:14 80.96, 80.93 105.65 1.01 15
11 12/09/2020 09:52:28 -80.96,-111.52 74.34 12/09/2020 09:52:54 -80.97,-111.63 74.34 2.11 26
12 12/09/2020 10:43:00 80.96, 55.84 105.66 12/09/2020 10:43:34 80.97, 55.81 105.68 1.29 34
13 12/09/2020 11:33:30 -80.97,-137.01 74.35 12/09/2020 11:34:15 -80.96,-137.11 74.35 2.24 45
14 12/09/2020 12:24:03 80.98, 30.35 105.66 12/09/2020 12:24:56 80.97, 30.33 105.67 0.79 53
15 12/09/2020 13:14:32 -80.97,-162.13 74.34 12/09/2020 13:15:36 -80.97,-162.23 74.32 1.78 64
